Year,Month,Day,Hour,Minute,Value (Times are PST for temperature in C)
2011,05,27,00,00,10.40
2011,05,27,00,01,10.40
2011,05,27,00,02,10.40
2011,05,27,00,03,10.30
2011,05,27,00,04,10.30
2011,05,27,00,05,10.30
2011,05,27,00,06,10.30
2011,05,27,00,07,10.30
2011,05,27,00,08,10.30
2011,05,27,00,09,10.30
2011,05,27,00,10,10.30
2011,05,27,00,11,10.30
2011,05,27,00,12,10.30
2011,05,27,00,13,10.30
2011,05,27,00,14,10.40
2011,05,27,00,15,10.40
2011,05,27,00,16,10.40
2011,05,27,00,17,10.40
2011,05,27,00,18,10.40
2011,05,27,00,19,10.40
2011,05,27,00,20,10.40
2011,05,27,00,21,10.40
2011,05,27,00,22,10.40
2011,05,27,00,23,10.40
2011,05,27,00,24,10.40
2011,05,27,00,25,10.40
2011,05,27,00,26,10.40
2011,05,27,00,27,10.40
2011,05,27,00,28,10.40
2011,05,27,00,29,10.40
2011,05,27,00,30,10.40
2011,05,27,00,31,10.40
2011,05,27,00,32,10.40
2011,05,27,00,33,10.40
2011,05,27,00,34,10.40
2011,05,27,00,35,10.40
2011,05,27,00,36,10.40
2011,05,27,00,37,10.40
2011,05,27,00,38,10.40
2011,05,27,00,39,10.40
2011,05,27,00,40,10.40
2011,05,27,00,41,10.40
2011,05,27,00,42,10.40
2011,05,27,00,43,10.40
2011,05,27,00,44,10.50
2011,05,27,00,45,10.50
2011,05,27,00,46,10.50
2011,05,27,00,47,10.50
2011,05,27,00,48,10.60
2011,05,27,00,49,10.60
2011,05,27,00,50,10.60
2011,05,27,00,51,10.60
2011,05,27,00,52,10.60
2011,05,27,00,53,10.60
2011,05,27,00,54,10.60
2011,05,27,00,55,10.70
2011,05,27,00,56,10.70
2011,05,27,00,57,10.70
2011,05,27,00,58,10.70
2011,05,27,00,59,10.80
2011,05,27,01,00,10.80
2011,05,27,01,01,10.80
2011,05,27,01,02,10.80
2011,05,27,01,03,10.80
2011,05,27,01,04,10.80
2011,05,27,01,05,10.90
2011,05,27,01,06,10.90
2011,05,27,01,07,10.90
2011,05,27,01,08,10.90
2011,05,27,01,09,10.90
2011,05,27,01,10,10.90
2011,05,27,01,11,10.90
2011,05,27,01,12,10.90
2011,05,27,01,13,10.90
2011,05,27,01,14,10.90
2011,05,27,01,15,10.90
2011,05,27,01,16,10.90
2011,05,27,01,17,10.90
2011,05,27,01,18,10.90
2011,05,27,01,19,10.90
2011,05,27,01,20,10.90
2011,05,27,01,21,10.90
2011,05,27,01,22,10.90
2011,05,27,01,23,10.90
2011,05,27,01,24,10.90
2011,05,27,01,25,10.90
2011,05,27,01,26,10.90
2011,05,27,01,27,10.90
2011,05,27,01,28,10.90
2011,05,27,01,29,10.90
2011,05,27,01,30,10.90
2011,05,27,01,31,10.90
2011,05,27,01,32,10.90
2011,05,27,01,33,10.90
2011,05,27,01,34,10.90
2011,05,27,01,35,10.90
2011,05,27,01,36,10.90
2011,05,27,01,37,10.90
2011,05,27,01,38,10.90
2011,05,27,01,39,10.90
2011,05,27,01,40,10.90
2011,05,27,01,41,10.90
2011,05,27,01,42,10.90
2011,05,27,01,43,10.90
2011,05,27,01,44,10.90
2011,05,27,01,45,10.90
2011,05,27,01,46,10.90
2011,05,27,01,47,10.90
2011,05,27,01,48,10.90
2011,05,27,01,49,10.90
2011,05,27,01,50,10.90
2011,05,27,01,51,10.90
2011,05,27,01,52,11.00
2011,05,27,01,53,11.00
2011,05,27,01,54,11.00
2011,05,27,01,55,11.00
2011,05,27,01,56,11.00
2011,05,27,01,57,11.00
2011,05,27,01,58,11.00
2011,05,27,01,59,11.00
2011,05,27,02,00,11.00
2011,05,27,02,01,11.00
2011,05,27,02,02,11.00
2011,05,27,02,03,11.00
2011,05,27,02,04,11.00
2011,05,27,02,05,11.00
2011,05,27,02,06,11.00
2011,05,27,02,07,11.00
2011,05,27,02,08,11.00
2011,05,27,02,09,11.00
2011,05,27,02,10,11.00
2011,05,27,02,11,11.00
2011,05,27,02,12,11.00
2011,05,27,02,13,11.00
2011,05,27,02,14,11.00
2011,05,27,02,15,11.10
2011,05,27,02,16,11.10
2011,05,27,02,17,11.10
2011,05,27,02,18,11.10
2011,05,27,02,19,11.10
2011,05,27,02,20,11.10
2011,05,27,02,21,11.10
2011,05,27,02,22,11.10
2011,05,27,02,23,11.10
2011,05,27,02,24,11.10
2011,05,27,02,25,11.10
2011,05,27,02,26,11.10
2011,05,27,02,27,11.10
2011,05,27,02,28,11.10
2011,05,27,02,29,11.10
2011,05,27,02,30,11.10
2011,05,27,02,31,11.10
2011,05,27,02,32,11.10
2011,05,27,02,33,11.10
2011,05,27,02,34,11.10
2011,05,27,02,35,11.10
2011,05,27,02,36,11.10
2011,05,27,02,37,11.10
2011,05,27,02,38,11.10
2011,05,27,02,39,11.10
2011,05,27,02,40,11.10
2011,05,27,02,41,11.00
2011,05,27,02,42,11.00
2011,05,27,02,43,11.00
2011,05,27,02,44,11.00
2011,05,27,02,45,11.10
2011,05,27,02,46,11.10
2011,05,27,02,47,11.10
2011,05,27,02,48,11.10
2011,05,27,02,49,11.10
2011,05,27,02,50,11.10
2011,05,27,02,51,11.10
2011,05,27,02,52,11.10
2011,05,27,02,53,11.10
2011,05,27,02,54,11.10
2011,05,27,02,55,11.10
2011,05,27,02,56,11.10
2011,05,27,02,57,11.10
2011,05,27,02,58,11.10
2011,05,27,02,59,11.10
2011,05,27,03,00,11.10
2011,05,27,03,01,11.10
2011,05,27,03,02,11.10
2011,05,27,03,03,11.10
2011,05,27,03,04,11.10
2011,05,27,03,05,11.10
2011,05,27,03,06,11.10
2011,05,27,03,07,11.10
2011,05,27,03,08,11.10
2011,05,27,03,09,11.10
2011,05,27,03,10,11.10
2011,05,27,03,11,11.10
2011,05,27,03,12,11.10
2011,05,27,03,13,11.10
2011,05,27,03,14,11.10
2011,05,27,03,15,11.10
2011,05,27,03,16,11.10
2011,05,27,03,17,11.10
2011,05,27,03,18,11.10
2011,05,27,03,19,11.10
2011,05,27,03,20,11.10
2011,05,27,03,21,11.10
2011,05,27,03,22,11.10
2011,05,27,03,23,11.10
2011,05,27,03,24,11.10
2011,05,27,03,25,11.10
2011,05,27,03,26,11.10
2011,05,27,03,27,11.10
2011,05,27,03,28,11.10
2011,05,27,03,29,11.10
2011,05,27,03,30,11.10
2011,05,27,03,31,11.10
2011,05,27,03,32,11.10
2011,05,27,03,33,11.10
2011,05,27,03,34,11.00
2011,05,27,03,35,11.00
2011,05,27,03,36,11.00
2011,05,27,03,37,11.00
2011,05,27,03,38,11.00
2011,05,27,03,39,11.00
2011,05,27,03,40,11.00
2011,05,27,03,41,11.00
2011,05,27,03,42,11.00
2011,05,27,03,43,11.00
2011,05,27,03,44,11.00
2011,05,27,03,45,11.00
2011,05,27,03,46,11.00
2011,05,27,03,47,10.90
2011,05,27,03,48,10.90
2011,05,27,03,49,10.90
2011,05,27,03,50,10.90
2011,05,27,03,51,10.90
2011,05,27,03,52,10.90
2011,05,27,03,53,10.80
2011,05,27,03,54,10.80
2011,05,27,03,55,10.80
2011,05,27,03,56,10.80
2011,05,27,03,57,10.70
2011,05,27,03,58,10.70
2011,05,27,03,59,10.70
2011,05,27,04,00,10.70
2011,05,27,04,01,10.70
2011,05,27,04,02,10.60
2011,05,27,04,03,10.60
2011,05,27,04,04,10.60
2011,05,27,04,05,10.60
2011,05,27,04,06,10.60
2011,05,27,04,07,10.50
2011,05,27,04,08,10.50
2011,05,27,04,09,10.50
2011,05,27,04,10,10.40
2011,05,27,04,11,10.40
2011,05,27,04,12,10.40
2011,05,27,04,13,10.40
2011,05,27,04,14,10.30
2011,05,27,04,15,10.30
2011,05,27,04,16,10.30
2011,05,27,04,17,10.30
2011,05,27,04,18,10.30
2011,05,27,04,19,10.30
2011,05,27,04,20,10.20
2011,05,27,04,21,10.20
2011,05,27,04,22,10.20
2011,05,27,04,23,10.20
2011,05,27,04,24,10.20
2011,05,27,04,25,10.20
2011,05,27,04,26,10.20
2011,05,27,04,27,10.10
2011,05,27,04,28,10.10
2011,05,27,04,29,10.10
2011,05,27,04,30,10.10
2011,05,27,04,31,10.10
2011,05,27,04,32,10.10
2011,05,27,04,33,10.10
2011,05,27,04,34,10.00
2011,05,27,04,35,10.00
2011,05,27,04,36,10.00
2011,05,27,04,37,10.00
2011,05,27,04,38,10.00
2011,05,27,04,39,9.90
2011,05,27,04,40,9.90
2011,05,27,04,41,9.90
2011,05,27,04,42,9.90
2011,05,27,04,43,9.90
2011,05,27,04,44,9.90
2011,05,27,04,45,9.90
2011,05,27,04,46,9.80
2011,05,27,04,47,9.80
2011,05,27,04,48,9.80
2011,05,27,04,49,9.80
2011,05,27,04,50,9.80
2011,05,27,04,51,9.70
2011,05,27,04,52,9.70
2011,05,27,04,53,9.70
2011,05,27,04,54,9.70
2011,05,27,04,55,9.70
2011,05,27,04,56,9.70
2011,05,27,04,57,9.70
2011,05,27,04,58,9.70
2011,05,27,04,59,9.70
2011,05,27,05,00,9.70
2011,05,27,05,01,9.70
2011,05,27,05,02,9.70
2011,05,27,05,03,9.60
2011,05,27,05,04,9.60
2011,05,27,05,05,9.60
2011,05,27,05,06,9.60
2011,05,27,05,07,9.60
2011,05,27,05,08,9.60
2011,05,27,05,09,9.60
2011,05,27,05,10,9.60
2011,05,27,05,11,9.60
2011,05,27,05,12,9.60
2011,05,27,05,13,9.60
2011,05,27,05,14,9.60
2011,05,27,05,15,9.60
2011,05,27,05,16,9.60
2011,05,27,05,17,9.60
2011,05,27,05,18,9.60
2011,05,27,05,19,9.60
2011,05,27,05,20,9.60
2011,05,27,05,21,9.50
2011,05,27,05,22,9.50
2011,05,27,05,23,9.60
2011,05,27,05,24,9.60
2011,05,27,05,25,9.60
2011,05,27,05,26,9.60
2011,05,27,05,27,9.60
2011,05,27,05,28,9.60
2011,05,27,05,29,9.60
2011,05,27,05,30,9.60
2011,05,27,05,31,9.50
2011,05,27,05,32,9.50
2011,05,27,05,33,9.50
2011,05,27,05,34,9.50
2011,05,27,05,35,9.50
2011,05,27,05,36,9.50
2011,05,27,05,37,9.50
2011,05,27,05,38,9.40
2011,05,27,05,39,9.40
2011,05,27,05,40,9.40
2011,05,27,05,41,9.40
2011,05,27,05,42,9.40
2011,05,27,05,43,9.40
2011,05,27,05,44,9.40
2011,05,27,05,45,9.40
2011,05,27,05,46,9.40
2011,05,27,05,47,9.40
2011,05,27,05,48,9.40
2011,05,27,05,49,9.40
2011,05,27,05,50,9.40
2011,05,27,05,51,9.30
2011,05,27,05,52,9.30
2011,05,27,05,53,9.30
2011,05,27,05,54,9.30
2011,05,27,05,55,9.30
2011,05,27,05,56,9.30
2011,05,27,05,57,9.30
2011,05,27,05,58,9.30
2011,05,27,05,59,9.30
2011,05,27,06,00,9.30
2011,05,27,06,01,9.30
2011,05,27,06,02,9.30
2011,05,27,06,03,9.30
2011,05,27,06,04,9.30
2011,05,27,06,05,9.30
2011,05,27,06,06,9.30
2011,05,27,06,07,9.30
2011,05,27,06,08,9.30
2011,05,27,06,09,9.30
2011,05,27,06,10,9.30
2011,05,27,06,11,9.30
2011,05,27,06,12,9.20
2011,05,27,06,13,9.20
2011,05,27,06,14,9.20
2011,05,27,06,15,9.20
2011,05,27,06,16,9.20
2011,05,27,06,17,9.20
2011,05,27,06,18,9.20
2011,05,27,06,19,9.20
2011,05,27,06,20,9.20
2011,05,27,06,21,9.20
2011,05,27,06,22,9.20
2011,05,27,06,23,9.20
2011,05,27,06,24,9.20
2011,05,27,06,25,9.20
2011,05,27,06,26,9.20
2011,05,27,06,27,9.10
2011,05,27,06,28,9.10
2011,05,27,06,29,9.10
2011,05,27,06,30,9.10
2011,05,27,06,31,9.10
2011,05,27,06,32,9.10
2011,05,27,06,33,9.10
2011,05,27,06,34,9.10
2011,05,27,06,35,9.10
2011,05,27,06,36,9.10
2011,05,27,06,37,9.10
2011,05,27,06,38,9.10
2011,05,27,06,39,9.10
2011,05,27,06,40,9.10
2011,05,27,06,41,9.10
2011,05,27,06,42,9.10
2011,05,27,06,43,9.10
2011,05,27,06,44,9.10
2011,05,27,06,45,9.10
2011,05,27,06,46,9.10
2011,05,27,06,47,9.00
2011,05,27,06,48,9.00
2011,05,27,06,49,9.00
2011,05,27,06,50,8.90
2011,05,27,06,51,8.90
2011,05,27,06,52,8.80
2011,05,27,06,53,8.80
2011,05,27,06,54,8.80
2011,05,27,06,55,8.80
2011,05,27,06,56,8.80
2011,05,27,06,57,8.80
2011,05,27,06,58,8.80
2011,05,27,06,59,8.80
2011,05,27,07,00,8.80
2011,05,27,07,01,8.80
2011,05,27,07,02,8.80
2011,05,27,07,03,8.80
2011,05,27,07,04,8.80
2011,05,27,07,05,8.80
2011,05,27,07,06,8.80
2011,05,27,07,07,8.80
2011,05,27,07,08,8.80
2011,05,27,07,09,8.80
2011,05,27,07,10,8.80
2011,05,27,07,11,8.80
2011,05,27,07,12,8.80
2011,05,27,07,13,8.70
2011,05,27,07,14,8.70
2011,05,27,07,15,8.70
2011,05,27,07,16,8.70
2011,05,27,07,17,8.70
2011,05,27,07,18,8.70
2011,05,27,07,19,8.70
2011,05,27,07,20,8.60
2011,05,27,07,21,8.60
2011,05,27,07,22,8.60
2011,05,27,07,23,8.60
2011,05,27,07,24,8.60
2011,05,27,07,25,8.60
2011,05,27,07,26,8.60
2011,05,27,07,27,8.60
2011,05,27,07,28,8.60
2011,05,27,07,29,8.60
2011,05,27,07,30,8.60
2011,05,27,07,31,8.60
2011,05,27,07,32,8.60
2011,05,27,07,33,8.60
2011,05,27,07,34,8.60
2011,05,27,07,35,8.60
2011,05,27,07,36,8.60
2011,05,27,07,37,8.60
2011,05,27,07,38,8.60
2011,05,27,07,39,8.60
2011,05,27,07,40,8.70
2011,05,27,07,41,8.70
2011,05,27,07,42,8.60
2011,05,27,07,43,8.60
2011,05,27,07,44,8.60
2011,05,27,07,45,8.60
2011,05,27,07,46,8.60
2011,05,27,07,47,8.60
2011,05,27,07,48,8.60
2011,05,27,07,49,8.60
2011,05,27,07,50,8.60
2011,05,27,07,51,8.60
2011,05,27,07,52,8.60
2011,05,27,07,53,8.60
2011,05,27,07,54,8.60
2011,05,27,07,55,8.60
2011,05,27,07,56,8.60
2011,05,27,07,57,8.60
2011,05,27,07,58,8.60
2011,05,27,07,59,8.70
2011,05,27,08,00,8.70
2011,05,27,08,01,8.70
2011,05,27,08,02,8.70
2011,05,27,08,03,8.70
2011,05,27,08,04,8.70
2011,05,27,08,05,8.70
2011,05,27,08,06,8.70
2011,05,27,08,07,8.70
2011,05,27,08,08,8.70
2011,05,27,08,09,8.70
2011,05,27,08,10,8.70
2011,05,27,08,11,8.70
2011,05,27,08,12,8.70
2011,05,27,08,13,8.80
2011,05,27,08,14,8.80
2011,05,27,08,15,8.80
2011,05,27,08,16,8.80
2011,05,27,08,17,8.80
2011,05,27,08,18,8.80
2011,05,27,08,19,8.80
2011,05,27,08,20,8.80
2011,05,27,08,21,8.80
2011,05,27,08,22,8.80
2011,05,27,08,23,8.80
2011,05,27,08,24,8.80
2011,05,27,08,25,8.80
2011,05,27,08,26,8.80
2011,05,27,08,27,8.80
2011,05,27,08,28,8.80
2011,05,27,08,29,8.80
2011,05,27,08,30,8.70
2011,05,27,08,31,8.70
2011,05,27,08,32,8.70
2011,05,27,08,33,8.70
2011,05,27,08,34,8.70
2011,05,27,08,35,8.70
2011,05,27,08,36,8.80
2011,05,27,08,37,8.80
2011,05,27,08,38,8.70
2011,05,27,08,39,8.70
2011,05,27,08,40,8.70
2011,05,27,08,41,8.80
2011,05,27,08,42,8.80
2011,05,27,08,43,8.80
2011,05,27,08,44,8.80
2011,05,27,08,45,8.80
2011,05,27,08,46,8.80
2011,05,27,08,47,8.80
2011,05,27,08,48,8.80
2011,05,27,08,49,8.80
2011,05,27,08,50,8.80
2011,05,27,08,51,8.80
2011,05,27,08,52,8.80
2011,05,27,08,53,8.80
2011,05,27,08,54,8.80
2011,05,27,08,55,8.80
2011,05,27,08,56,8.80
2011,05,27,08,57,8.80
2011,05,27,08,58,8.80
2011,05,27,08,59,8.80
2011,05,27,09,00,8.80
2011,05,27,09,01,8.80
2011,05,27,09,02,8.80
2011,05,27,09,03,8.80
2011,05,27,09,04,8.80
2011,05,27,09,05,8.80
2011,05,27,09,06,8.90
2011,05,27,09,07,8.90
2011,05,27,09,08,8.90
2011,05,27,09,09,8.90
2011,05,27,09,10,8.90
2011,05,27,09,11,8.90
2011,05,27,09,12,8.90
2011,05,27,09,13,8.90
2011,05,27,09,14,9.00
2011,05,27,09,15,9.00
2011,05,27,09,16,9.10
2011,05,27,09,17,9.10
2011,05,27,09,18,9.20
2011,05,27,09,19,9.20
2011,05,27,09,20,9.20
2011,05,27,09,21,9.20
2011,05,27,09,22,9.20
2011,05,27,09,23,9.30
2011,05,27,09,24,9.30
2011,05,27,09,25,9.40
2011,05,27,09,26,9.40
2011,05,27,09,27,9.50
2011,05,27,09,28,9.50
2011,05,27,09,29,9.40
2011,05,27,09,30,9.40
2011,05,27,09,31,9.40
2011,05,27,09,32,9.40
2011,05,27,09,33,9.40
2011,05,27,09,34,9.40
2011,05,27,09,35,9.40
2011,05,27,09,36,9.50
2011,05,27,09,37,9.50
2011,05,27,09,38,9.60
2011,05,27,09,39,9.70
2011,05,27,09,40,9.80
2011,05,27,09,41,9.80
2011,05,27,09,42,9.80
2011,05,27,09,43,9.80
2011,05,27,09,44,9.90
2011,05,27,09,45,9.90
2011,05,27,09,46,10.00
2011,05,27,09,47,10.10
2011,05,27,09,48,10.20
2011,05,27,09,49,10.20
2011,05,27,09,50,10.30
2011,05,27,09,51,10.40
2011,05,27,09,52,10.40
2011,05,27,09,53,10.40
2011,05,27,09,54,10.40
2011,05,27,09,55,10.40
2011,05,27,09,56,10.40
2011,05,27,09,57,10.40
2011,05,27,09,58,10.30
2011,05,27,09,59,10.40
2011,05,27,10,00,10.40
2011,05,27,10,01,10.50
2011,05,27,10,02,10.60
2011,05,27,10,03,10.60
2011,05,27,10,04,10.70
2011,05,27,10,05,10.70
2011,05,27,10,06,10.70
2011,05,27,10,07,10.80
2011,05,27,10,08,10.80
2011,05,27,10,09,10.80
2011,05,27,10,10,10.70
2011,05,27,10,11,10.70
2011,05,27,10,12,10.70
2011,05,27,10,13,10.70
2011,05,27,10,14,10.80
2011,05,27,10,15,10.80
2011,05,27,10,16,10.80
2011,05,27,10,17,10.90
2011,05,27,10,18,10.90
2011,05,27,10,19,11.00
2011,05,27,10,20,11.00
2011,05,27,10,21,11.10
2011,05,27,10,22,11.10
2011,05,27,10,23,11.20
2011,05,27,10,24,11.30
2011,05,27,10,25,11.40
2011,05,27,10,26,11.50
2011,05,27,10,27,11.60
2011,05,27,10,28,11.70
2011,05,27,10,29,11.80
2011,05,27,10,30,11.80
2011,05,27,10,31,11.90
2011,05,27,10,32,12.00
2011,05,27,10,33,12.00
2011,05,27,10,34,12.20
2011,05,27,10,35,12.30
2011,05,27,10,36,12.40
2011,05,27,10,37,12.40
2011,05,27,10,38,12.50
2011,05,27,10,39,12.50
2011,05,27,10,40,12.60
2011,05,27,10,41,12.70
2011,05,27,10,42,12.70
2011,05,27,10,43,12.70
2011,05,27,10,44,12.60
2011,05,27,10,45,12.60
2011,05,27,10,46,12.60
2011,05,27,10,47,12.70
2011,05,27,10,48,12.70
2011,05,27,10,49,12.80
2011,05,27,10,50,12.90
2011,05,27,10,51,12.90
2011,05,27,10,52,12.90
2011,05,27,10,53,13.00
2011,05,27,10,54,13.00
2011,05,27,10,55,13.00
2011,05,27,10,56,12.90
2011,05,27,10,57,12.90
2011,05,27,10,58,12.90
2011,05,27,10,59,12.90
2011,05,27,11,00,12.90
2011,05,27,11,01,12.80
2011,05,27,11,02,12.90
2011,05,27,11,03,12.90
2011,05,27,11,04,13.00
2011,05,27,11,05,13.10
2011,05,27,11,06,13.10
2011,05,27,11,07,13.20
2011,05,27,11,08,13.20
2011,05,27,11,09,13.30
2011,05,27,11,10,13.30
2011,05,27,11,11,13.30
2011,05,27,11,12,13.30
2011,05,27,11,13,13.30
2011,05,27,11,14,13.30
2011,05,27,11,15,13.30
2011,05,27,11,16,13.20
2011,05,27,11,17,13.20
2011,05,27,11,18,13.20
2011,05,27,11,19,13.30
2011,05,27,11,20,13.20
2011,05,27,11,21,13.20
2011,05,27,11,22,13.20
2011,05,27,11,23,13.10
2011,05,27,11,24,13.10
2011,05,27,11,25,13.10
2011,05,27,11,26,13.10
2011,05,27,11,27,13.10
2011,05,27,11,28,13.10
2011,05,27,11,29,13.10
2011,05,27,11,30,13.20
2011,05,27,11,31,13.30
2011,05,27,11,32,13.40
2011,05,27,11,33,13.40
2011,05,27,11,34,13.40
2011,05,27,11,35,13.40
2011,05,27,11,36,13.40
2011,05,27,11,37,13.30
2011,05,27,11,38,13.40
2011,05,27,11,39,13.40
2011,05,27,11,40,13.50
2011,05,27,11,41,13.50
2011,05,27,11,42,13.50
2011,05,27,11,43,13.50
2011,05,27,11,44,13.40
2011,05,27,11,45,13.30
2011,05,27,11,46,13.40
2011,05,27,11,47,13.40
2011,05,27,11,48,13.40
2011,05,27,11,49,13.50
2011,05,27,11,50,13.50
2011,05,27,11,51,13.50
2011,05,27,11,52,13.60
2011,05,27,11,53,13.60
2011,05,27,11,54,13.70
2011,05,27,11,55,13.70
2011,05,27,11,56,13.70
2011,05,27,11,57,13.70
2011,05,27,11,58,13.70
2011,05,27,11,59,13.70
2011,05,27,12,00,13.60
2011,05,27,12,01,13.60
2011,05,27,12,02,13.60
2011,05,27,12,03,13.60
2011,05,27,12,04,13.60
2011,05,27,12,05,13.60
2011,05,27,12,06,13.60
2011,05,27,12,07,13.60
2011,05,27,12,08,13.70
2011,05,27,12,09,13.70
2011,05,27,12,10,13.70
2011,05,27,12,11,13.70
2011,05,27,12,12,13.60
2011,05,27,12,13,13.50
2011,05,27,12,14,13.40
2011,05,27,12,15,13.40
2011,05,27,12,16,13.40
2011,05,27,12,17,13.30
2011,05,27,12,18,13.30
2011,05,27,12,19,13.30
2011,05,27,12,20,13.30
2011,05,27,12,21,13.40
2011,05,27,12,22,13.40
2011,05,27,12,23,13.50
2011,05,27,12,24,13.60
2011,05,27,12,25,13.60
2011,05,27,12,26,13.60
2011,05,27,12,27,13.70
2011,05,27,12,28,13.70
2011,05,27,12,29,13.60
2011,05,27,12,30,13.50
2011,05,27,12,31,13.40
2011,05,27,12,32,13.30
2011,05,27,12,33,13.20
2011,05,27,12,34,13.30
2011,05,27,12,35,13.30
2011,05,27,12,36,13.30
2011,05,27,12,37,13.30
2011,05,27,12,38,13.40
2011,05,27,12,39,13.40
2011,05,27,12,40,13.40
2011,05,27,12,41,13.40
2011,05,27,12,42,13.40
2011,05,27,12,43,13.40
2011,05,27,12,44,13.40
2011,05,27,12,45,13.50
2011,05,27,12,46,13.60
2011,05,27,12,47,13.70
2011,05,27,12,48,13.70
2011,05,27,12,49,13.80
2011,05,27,12,50,13.80
2011,05,27,12,51,13.90
2011,05,27,12,52,14.00
2011,05,27,12,53,14.10
2011,05,27,12,54,14.00
2011,05,27,12,55,14.00
2011,05,27,12,56,14.00
2011,05,27,12,57,14.00
2011,05,27,12,58,14.00
2011,05,27,12,59,13.90
2011,05,27,13,00,13.90
2011,05,27,13,01,13.90
2011,05,27,13,02,13.90
2011,05,27,13,03,13.90
2011,05,27,13,04,14.00
2011,05,27,13,05,14.00
2011,05,27,13,06,14.10
2011,05,27,13,07,14.00
2011,05,27,13,08,14.00
2011,05,27,13,09,14.10
2011,05,27,13,10,14.10
2011,05,27,13,11,14.20
2011,05,27,13,12,14.30
2011,05,27,13,13,14.50
2011,05,27,13,14,14.70
2011,05,27,13,15,14.80
2011,05,27,13,16,14.90
2011,05,27,13,17,15.00
2011,05,27,13,18,15.00
2011,05,27,13,19,14.80
2011,05,27,13,20,14.70
2011,05,27,13,21,14.60
2011,05,27,13,22,14.60
2011,05,27,13,23,14.60
2011,05,27,13,24,14.60
2011,05,27,13,25,14.60
2011,05,27,13,26,14.60
2011,05,27,13,27,14.60
2011,05,27,13,28,14.60
2011,05,27,13,29,14.60
2011,05,27,13,30,14.70
2011,05,27,13,31,14.70
2011,05,27,13,32,14.70
2011,05,27,13,33,14.70
2011,05,27,13,34,14.60
2011,05,27,13,35,14.60
2011,05,27,13,36,14.70
2011,05,27,13,37,14.60
2011,05,27,13,38,14.70
2011,05,27,13,39,14.70
2011,05,27,13,40,14.60
2011,05,27,13,41,14.60
2011,05,27,13,42,14.70
2011,05,27,13,43,14.80
2011,05,27,13,44,14.80
2011,05,27,13,45,14.70
2011,05,27,13,46,14.60
2011,05,27,13,47,14.40
2011,05,27,13,48,14.30
2011,05,27,13,49,14.20
2011,05,27,13,50,14.10
2011,05,27,13,51,14.10
2011,05,27,13,52,14.00
2011,05,27,13,53,13.90
2011,05,27,13,54,13.80
2011,05,27,13,55,13.70
2011,05,27,13,56,13.60
2011,05,27,13,57,13.60
2011,05,27,13,58,13.50
2011,05,27,13,59,13.40
2011,05,27,14,00,13.40
2011,05,27,14,01,13.50
2011,05,27,14,02,13.60
2011,05,27,14,03,13.70
2011,05,27,14,04,13.80
2011,05,27,14,05,14.00
2011,05,27,14,06,14.20
2011,05,27,14,07,14.30
2011,05,27,14,08,14.30
2011,05,27,14,09,14.30
2011,05,27,14,10,14.20
2011,05,27,14,11,14.20
2011,05,27,14,12,14.30
2011,05,27,14,13,14.50
2011,05,27,14,14,14.60
2011,05,27,14,15,14.50
2011,05,27,14,16,14.40
2011,05,27,14,17,14.40
2011,05,27,14,18,14.50
2011,05,27,14,19,14.60
2011,05,27,14,20,14.70
2011,05,27,14,21,14.80
2011,05,27,14,22,15.00
2011,05,27,14,23,15.00
2011,05,27,14,24,15.00
2011,05,27,14,25,15.10
2011,05,27,14,26,15.00
2011,05,27,14,27,15.00
2011,05,27,14,28,15.00
2011,05,27,14,29,15.10
2011,05,27,14,30,15.20
2011,05,27,14,31,15.00
2011,05,27,14,32,15.00
2011,05,27,14,33,15.00
2011,05,27,14,34,14.90
2011,05,27,14,35,14.70
2011,05,27,14,36,14.70
2011,05,27,14,37,14.70
2011,05,27,14,38,14.70
2011,05,27,14,39,14.70
2011,05,27,14,40,14.90
2011,05,27,14,41,15.00
2011,05,27,14,42,15.10
2011,05,27,14,43,15.20
2011,05,27,14,44,15.30
2011,05,27,14,45,15.40
2011,05,27,14,46,15.40
2011,05,27,14,47,15.40
2011,05,27,14,48,15.30
2011,05,27,14,49,15.30
2011,05,27,14,50,15.30
2011,05,27,14,51,15.40
2011,05,27,14,52,15.50
2011,05,27,14,53,15.60
2011,05,27,14,54,15.60
2011,05,27,14,55,15.60
2011,05,27,14,56,15.60
2011,05,27,14,57,15.60
2011,05,27,14,58,15.50
2011,05,27,14,59,15.40
2011,05,27,15,00,15.40
2011,05,27,15,01,15.30
2011,05,27,15,02,15.20
2011,05,27,15,03,15.20
2011,05,27,15,04,15.30
2011,05,27,15,05,15.30
2011,05,27,15,06,15.30
2011,05,27,15,07,15.20
2011,05,27,15,08,15.20
2011,05,27,15,09,15.20
2011,05,27,15,10,15.30
2011,05,27,15,11,15.40
2011,05,27,15,12,15.50
2011,05,27,15,13,15.60
2011,05,27,15,14,15.60
2011,05,27,15,15,15.60
2011,05,27,15,16,15.50
2011,05,27,15,17,15.40
2011,05,27,15,18,15.40
2011,05,27,15,19,15.40
2011,05,27,15,20,15.50
2011,05,27,15,21,15.50
2011,05,27,15,22,15.60
2011,05,27,15,23,15.60
2011,05,27,15,24,15.60
2011,05,27,15,25,15.60
2011,05,27,15,26,15.60
2011,05,27,15,27,15.70
2011,05,27,15,28,15.70
2011,05,27,15,29,15.60
2011,05,27,15,30,15.60
2011,05,27,15,31,15.40
2011,05,27,15,32,15.30
2011,05,27,15,33,15.10
2011,05,27,15,34,15.00
2011,05,27,15,35,15.00
2011,05,27,15,36,14.90
2011,05,27,15,37,14.80
2011,05,27,15,38,14.90
2011,05,27,15,39,15.00
2011,05,27,15,40,15.00
2011,05,27,15,41,15.00
2011,05,27,15,42,15.00
2011,05,27,15,43,15.00
2011,05,27,15,44,15.00
2011,05,27,15,45,14.90
2011,05,27,15,46,15.00
2011,05,27,15,47,15.00
2011,05,27,15,48,14.90
2011,05,27,15,49,14.80
2011,05,27,15,50,14.90
2011,05,27,15,51,14.80
2011,05,27,15,52,14.80
2011,05,27,15,53,14.70
2011,05,27,15,54,14.70
2011,05,27,15,55,14.60
2011,05,27,15,56,14.50
2011,05,27,15,57,14.50
2011,05,27,15,58,14.40
2011,05,27,15,59,14.40
2011,05,27,16,00,14.40
2011,05,27,16,01,14.50
2011,05,27,16,02,14.50
2011,05,27,16,03,14.60
2011,05,27,16,04,14.60
2011,05,27,16,05,14.70
2011,05,27,16,06,14.70
2011,05,27,16,07,14.70
2011,05,27,16,08,14.80
2011,05,27,16,09,14.80
2011,05,27,16,10,14.80
2011,05,27,16,11,15.00
2011,05,27,16,12,15.00
2011,05,27,16,13,15.00
2011,05,27,16,14,15.00
2011,05,27,16,15,15.00
2011,05,27,16,16,15.10
2011,05,27,16,17,15.20
2011,05,27,16,18,15.10
2011,05,27,16,19,15.00
2011,05,27,16,20,15.00
2011,05,27,16,21,15.00
2011,05,27,16,22,14.90
2011,05,27,16,23,14.80
2011,05,27,16,24,14.60
2011,05,27,16,25,14.50
2011,05,27,16,26,14.50
2011,05,27,16,27,14.60
2011,05,27,16,28,14.70
2011,05,27,16,29,14.80
2011,05,27,16,30,14.80
2011,05,27,16,31,14.90
2011,05,27,16,32,14.90
2011,05,27,16,33,14.90
2011,05,27,16,34,14.80
2011,05,27,16,35,14.70
2011,05,27,16,36,14.70
2011,05,27,16,37,14.70
2011,05,27,16,38,14.60
2011,05,27,16,39,14.60
2011,05,27,16,40,14.60
2011,05,27,16,41,14.50
2011,05,27,16,42,14.40
2011,05,27,16,43,14.30
2011,05,27,16,44,14.30
2011,05,27,16,45,14.30
2011,05,27,16,46,14.30
2011,05,27,16,47,14.30
2011,05,27,16,48,14.30
2011,05,27,16,49,14.30
2011,05,27,16,50,14.30
2011,05,27,16,51,14.30
2011,05,27,16,52,14.30
2011,05,27,16,53,14.30
2011,05,27,16,54,14.30
2011,05,27,16,55,14.30
2011,05,27,16,56,14.30
2011,05,27,16,57,14.30
2011,05,27,16,58,14.30
2011,05,27,16,59,14.30
2011,05,27,17,00,14.40
2011,05,27,17,01,14.40
2011,05,27,17,02,14.40
2011,05,27,17,03,14.40
2011,05,27,17,04,14.40
2011,05,27,17,05,14.40
2011,05,27,17,06,14.30
2011,05,27,17,07,14.30
2011,05,27,17,08,14.40
2011,05,27,17,09,14.50
2011,05,27,17,10,14.50
2011,05,27,17,11,14.50
2011,05,27,17,12,14.50
2011,05,27,17,13,14.60
2011,05,27,17,14,14.60
2011,05,27,17,15,14.70
2011,05,27,17,16,14.70
2011,05,27,17,17,14.70
2011,05,27,17,18,14.70
2011,05,27,17,19,14.50
2011,05,27,17,20,14.30
2011,05,27,17,21,14.20
2011,05,27,17,22,14.20
2011,05,27,17,23,14.20
2011,05,27,17,24,14.10
2011,05,27,17,25,14.00
2011,05,27,17,26,14.00
2011,05,27,17,27,13.90
2011,05,27,17,28,14.00
2011,05,27,17,29,14.00
2011,05,27,17,30,14.00
2011,05,27,17,31,14.00
2011,05,27,17,32,13.90